This is the latest recevied weather packets stored in our database for station/object DK6MAX-13. If no packets are shown the sender has not sent any weather packets the latest 10 day(s).
| Time | Temp. | Humidity | Pressure | Rain* | Wind** | Luminosity | Snow |
|---|---|---|---|---|---|---|---|
| 1777192248 | 14.44° C | 44% | 1025.4 hPa | - | - | - | - |
| 1777192188 | 13.33° C | 43% | 1025.4 hPa | - | - | - | - |
| 1777192188 | 13.33° C | 44% | 1025.4 hPa | - | - | - | - |
| 1777192128 | 14.44° C | 43% | 1025.4 hPa | - | - | - | - |
| 1777192128 | 14.44° C | 45% | 1025.4 hPa | - | - | - | - |
| 1777192068 | 14.44° C | 45% | 1025.3 hPa | - | - | - | - |
| 1777192068 | 14.44° C | 45% | 1025.4 hPa | - | - | - | - |
| 1777192068 | 14.44° C | 41% | 1025.3 hPa | - | - | - | - |
| 1777192008 | 16.11° C | 47% | 1025.4 hPa | - | - | - | - |
| 1777192008 | 16.11° C | 41% | 1025.3 hPa | - | - | - | - |
| 1777192008 | 16.11° C | 41% | 1025.4 hPa | - | - | - | - |
| 1777191948 | 14.44° C | 47% | 1025.4 hPa | - | - | - | - |
| 1777191948 | 14.44° C | 42% | 1025.4 hPa | - | - | - | - |
| 1777191888 | 13.33° C | 42% | 1025.4 hPa | - | - | - | - |
| 1777191888 | 13.33° C | 42% | 1025.5 hPa | - | - | - | - |
| 1777191828 | 13.33° C | 42% | 1025.4 hPa | - | - | - | - |
| 1777191828 | 13.33° C | 42% | 1025.5 hPa | - | - | - | - |
| 1777191828 | 13.33° C | 46% | 1025.4 hPa | - | - | - | - |
| 1777191768 | 14.44° C | 45% | 1025.4 hPa | - | - | - | - |
| 1777191768 | 14.44° C | 46% | 1025.4 hPa | - | - | - | - |
| 1777191708 | 15° C | 45% | 1025.4 hPa | - | - | - | - |
| 1777191648 | 13.89° C | 45% | 1025.4 hPa | - | - | - | - |
| 1777191648 | 13.89° C | 49% | 1025.4 hPa | - | - | - | - |
| 1777191588 | 15° C | 49% | 1025.4 hPa | - | - | - | - |
| 1777191588 | 15° C | 41% | 1025.4 hPa | - | - | - | - |
* Rain since midnight (hover to see other rain measurements)
** Current wind speed in m/s (hover to see current wind gust speed)